This is the latest recevied weather packets stored in our database for station/object N7WSS. If no packets are shown the sender has not sent any weather packets the latest 10 day(s).
| Time | Temp. | Humidity | Pressure | Rain* | Wind** | Luminosity | Snow |
|---|---|---|---|---|---|---|---|
| 1777999668 | 18.33° C | 63% | 1011.1 hPa | 0 mm | - | - | - |
| 1777999365 | 18.33° C | 64% | 1011.2 hPa | 0 mm | - | - | - |
| 1777999063 | 18.33° C | 64% | 1011.2 hPa | 0 mm | - | - | - |
| 1777998761 | 17.78° C | 66% | 1011.2 hPa | 0 mm | - | - | - |
| 1777998458 | 17.78° C | 66% | 1010.9 hPa | 0 mm | - | - | - |
| 1777998155 | 17.78° C | 68% | 1011.1 hPa | 0 mm | - | - | - |
| 1777997852 | 18.33° C | 67% | 1011.2 hPa | 0 mm | - | - | - |
| 1777997550 | 18.33° C | 68% | 1010.8 hPa | 0 mm | - | - | - |
| 1777997247 | 17.78° C | 66% | 1010.9 hPa | 0 mm | - | - | - |
| 1777996945 | 17.78° C | 68% | 1011.1 hPa | 0 mm | - | - | - |
| 1777996641 | 17.78° C | 68% | 1010.7 hPa | 0 mm | - | - | - |
| 1777996337 | 17.78° C | 69% | 1010.9 hPa | 0 mm | - | - | - |
| 1777996034 | 17.22° C | 71% | 1011.1 hPa | 0 mm | - | - | - |
| 1777995729 | 17.22° C | 72% | 1011.1 hPa | 0 mm | - | - | - |
| 1777995426 | 17.22° C | 73% | 1011.1 hPa | 0 mm | - | - | - |
| 1777995124 | 16.67° C | 75% | 1010.8 hPa | 0 mm | - | - | - |
| 1777994821 | 16.67° C | 78% | 1010.8 hPa | 0 mm | - | - | - |
| 1777994516 | 16.11° C | 79% | 1010.9 hPa | 0 mm | - | - | - |
| 1777994212 | 16.11° C | 78% | 1010.8 hPa | 0 mm | - | - | - |
| 1777993910 | 16.11° C | 81% | 1010.9 hPa | 0 mm | - | - | - |
| 1777993605 | 16.11° C | 81% | 1010.9 hPa | 0 mm | - | - | - |
| 1777993303 | 16.11° C | 82% | 1010.8 hPa | 0 mm | - | - | - |
| 1777992998 | 16.11° C | 82% | 1010.7 hPa | 0 mm | - | - | - |
| 1777992697 | 15.56° C | 83% | 1010.7 hPa | 0 mm | - | - | - |
| 1777992394 | 15.56° C | 82% | 1010.6 hPa | 0 mm | - | - | - |
* Rain latest hour (hover to see other rain measurements)
** Current wind speed in m/s (hover to see current wind gust speed)